{"data":{"norad_id":36413,"epoch":"2026-05-25T03:55:28.470144Z","epoch_age_seconds":57927,"freshness":"FRESH","line1":"1 36413U 10009A   26145.16352396  .00000044  00000+0  95130-4 0  9999","line2":"2 36413  63.3661  57.7976 0535618  21.5592 340.7090 13.45696793796870","mean_motion":13.45696793,"eccentricity":0.0535618,"inclination_deg":63.3661,"raan_deg":57.7976,"arg_perigee_deg":21.5592,"mean_anomaly_deg":340.709,"bstar":9.513e-5,"rev_number":79687,"period_min":107.00776040268,"perigee_km":688.22622523637,"apogee_km":1488.039955911,"semimajor_km":7466.2700905737,"source":"CELESTRAK","updated_at":"2026-05-25T13:37:55.193534Z"}}